This is the latest recevied weather packets stored in our database for station/object KJ5IIV. If no packets are shown the sender has not sent any weather packets the latest 10 day(s).
| Time | Temp. | Humidity | Pressure | Rain* | Wind** | Luminosity | Snow |
|---|---|---|---|---|---|---|---|
| 1778158443 | 11.67° C | 95% | 1019.6 hPa | 0 mm | - | 89 W/m² | - |
| 1778158140 | 11.67° C | 95% | 1019.5 hPa | 0 mm | - | 98 W/m² | - |
| 1778157836 | 11.67° C | 96% | 1019.3 hPa | 0 mm | - | 105 W/m² | - |
| 1778157535 | 11.67° C | 96% | 1019.6 hPa | 0 mm | - | 84 W/m² | - |
| 1778157231 | 11.11° C | 96% | 1019.4 hPa | 0 mm | - | 59 W/m² | - |
| 1778156928 | 11.11° C | 96% | 1019.2 hPa | 0 mm | - | 58 W/m² | - |
| 1778156623 | 11.11° C | 96% | 1019.3 hPa | 0 mm | - | 47 W/m² | - |
| 1778156320 | 11.11° C | 96% | 1019.4 hPa | 0 mm | - | 52 W/m² | - |
| 1778156015 | 11.11° C | 97% | 1019.3 hPa | 0 mm | - | 57 W/m² | - |
| 1778155712 | 10.56° C | 97% | 1019 hPa | 0 mm | - | 57 W/m² | - |
| 1778155409 | 10.56° C | 97% | 1018.7 hPa | 0 mm | - | 49 W/m² | - |
| 1778155105 | 10.56° C | 97% | 1018.6 hPa | 0 mm | - | 29 W/m² | - |
| 1778154800 | 10.56° C | 97% | 1018.5 hPa | 0 mm | - | 25 W/m² | - |
| 1778154497 | 10.56° C | 97% | 1018.2 hPa | 0 mm | - | 15 W/m² | - |
| 1778154194 | 10.56° C | 97% | 1018.2 hPa | 0 mm | - | 10 W/m² | - |
| 1778153891 | 10.56° C | 97% | 1018 hPa | 0 mm | - | 6 W/m² | - |
| 1778153588 | 10.56° C | 97% | 1018 hPa | 0 mm | - | 3 W/m² | - |
| 1778153286 | 10.56° C | 97% | 1018 hPa | 0 mm | - | 2 W/m² | - |
| 1778152982 | 10.56° C | 97% | 1018 hPa | 0 mm | - | 1 W/m² | - |
| 1778152681 | 10.56° C | 97% | 1018 hPa | 0 mm | - | 1 W/m² | - |
| 1778152376 | 10.56° C | 97% | 1017.8 hPa | 0 mm | - | 0 W/m² | - |
| 1778152072 | 10.56° C | 97% | 1017.6 hPa | 0 mm | - | 0 W/m² | - |
| 1778151769 | 10.56° C | 97% | 1017.5 hPa | 0 mm | - | 0 W/m² | - |
| 1778151466 | 10.56° C | 97% | 1017.4 hPa | 0 mm | - | 0 W/m² | - |
| 1778151162 | 10.56° C | 96% | 1017.5 hPa | 0 mm | - | 0 W/m² | - |
* Rain latest hour (hover to see other rain measurements)
** Current wind speed in m/s (hover to see current wind gust speed)